Regional Weather Roundup
Issued by NWS Cleveland, OH

Home | Current Version | Previous Version | Graphics & Text | Print | Product List | Glossary On
Versions: 1 2 3 4 5 6 7 8 9 10 11 12 13 14 15 16 17 18 19 20 21 22 23 24 25 26 27 28 29 30 31 32 33 34 35 36 37 38 39 40 41 42 43 44 45 46 47 48 49 50
000
ASUS41 KCLE 290112
RWRCLE
OHIO REGIONAL WEATHER ROUNDUP
NATIONAL WEATHER SERVICE WILMINGTON, OH
900 PM EDT THU JUL 28 2016

NOTE: "FAIR" INDICATES FEW OR NO CLOUDS BELOW 12,000 FEET WITH NO
SIGNIFICANT WEATHER AND/OR OBSTRUCTIONS TO VISIBILITY.

OHZ001>008-015>018-024>027-034-035-043-044-290200-
   NORTHWEST OHIO

CITY           SKY/WX    TMP DP  RH WIND       PRES   REMARKS
DEFIANCE       FAIR      80  66  62 NE3       29.88F
FINDLAY        FAIR      79  63  57 CALM      29.88F
TOLEDO EXPRESS CLOUDY    79  71  76 NE3       29.88F
TOLEDO EXEC    CLOUDY    80  72  76 NE5       29.89F
LIMA           FAIR      77  69  76 NE5       29.90R
$$

OHZ009>014-019>023-028>033-038-089-290200-
   NORTHEAST OHIO

CITY           SKY/WX    TMP DP  RH WIND       PRES   REMARKS
CLE-HOPKINS    MOCLDY    78  65  63 N6        29.91S
CLE-LAKEFRONT  FAIR      77  71  82 NE8       29.88S
CUY CO. ARPT   PTCLDY    77  73  88 NE6       29.91R
LORAIN-ELYRIA  FAIR      74  63  68 N3        29.91R
ASHTABULA      FAIR      72  69  90 SE3       29.91S
AKRON-CANTON   MOCLDY    73  67  81 SW5       29.92R
WOOSTER        MOCLDY    73  68  84 S5        29.92R
MANSFIELD      FAIR      76  64  66 E7        29.92R
YOUNGSTOWN     CLOUDY    72  65  78 S5        29.92R
$$

OHZ042-051>053-060>062-070>072-077>081-290200-
  SOUTHWEST OHIO

CITY           SKY/WX    TMP DP  RH WIND       PRES   REMARKS
CINC-COVINGTON MOCLDY    78  73  84 W3        29.91R
CINC-LUNKEN    FAIR      75  74  96 W3        29.89S
HAMILTON       MOCLDY    76  68  76 CALM      29.89S
DAYTON         MOCLDY    77  68  73 SW9       29.91R
WRIGHT-PAT AFB NOT AVBL
DAYTON GENERAL FAIR      80  68  66 SW5       29.89S
WILMINGTON     FAIR      74  71  91 S5        29.90R
$$

OHZ036-037-039>041-045>050-054>059-063>069-073>076-082>088-290200-
  CENTRAL AND SOUTHEAST OHIO

CITY           SKY/WX    TMP DP  RH WIND       PRES   REMARKS
COLUMBUS       MOCLDY    73  70  90 CALM      29.89S
OSU AIRPORT    FAIR      72  70  93 SW3       29.90R
BOLTON FIELD   CLOUDY    70  69  96 S5        29.90F
RICKENBACK AFB RAIN      71  71  99 SW3       29.88F
NEWARK         LGT RAIN  73  71  93 N3        29.90R FOG
MARION         FAIR      79  69  71 VRB3      29.90S
LANCASTER      FAIR      74  73  97 CALM      29.90R
ZANESVILLE     CLOUDY    76  72  87 CALM      29.91R
NEW PHILLY     MOCLDY    74  69  85 CALM      29.92R
$$




USA.gov is the U.S. government's official web portal to all federal, state and local government web resources and services.